Location: Newark
(40.9833°N, 0.0333°W)
Time: 14:26:40
(UTC+00:00)

A-11 Canister half - All Passes

Search period start: 30 October 2020 00:00
Search period end: 09 November 2020 00:00
Orbit: 1526 x 1683 km, 47.3° (Epoch: 30 October)

Date Brightness Start Highest point End Pass type
(mag) Time Alt. Az. Time Alt. Az. Time Alt. Az.
30 Oct - 11:29:55 10° S 11:36:54 23° SE 11:43:42 10° E daylight
30 Oct - 13:31:09 10° SW 13:40:44 70° SE 13:50:04 10° ENE daylight
30 Oct - 15:36:32 10° W 15:46:01 65° NNW 15:55:18 10° ENE daylight
30 Oct - 17:42:42 10° WNW 17:52:03 64° NNE 18:01:17 10° E visible
30 Oct - 19:48:03 10° WNW 19:57:18 71° SW 20:06:33 10° SE visible
30 Oct - 21:54:27 10° W 22:01:03 22° SW 22:07:42 10° S visible
31 Oct - 11:08:37 10° S 11:15:19 21° SE 11:21:52 10° E daylight
31 Oct - 13:09:31 10° SW 13:19:06 67° SE 13:28:26 10° ENE daylight
31 Oct - 15:14:49 10° W 15:24:20 66° NNW 15:33:39 10° ENE daylight
31 Oct - 17:21:01 10° WNW 17:30:22 63° N 17:39:36 10° E visible
31 Oct - 19:26:23 10° WNW 19:35:41 73° SW 19:44:56 10° SE visible
31 Oct - 21:32:39 10° W 21:39:30 24° SW 21:46:23 10° S visible
01 Nov - 10:47:20 10° SSE 10:53:45 20° SE 11:00:01 10° E daylight
01 Nov - 12:47:53 10° SW 12:57:29 65° SE 13:06:46 10° ENE daylight
01 Nov - 14:53:05 10° W 15:02:39 67° NNW 15:11:59 10° ENE daylight
01 Nov - 16:59:18 10° WNW 17:08:41 63° N 17:17:54 10° E daylight
01 Nov - 19:04:44 10° WNW 19:14:03 76° SSW 19:23:20 10° SE visible
01 Nov - 21:10:51 10° WNW 21:17:55 25° SW 21:25:03 10° S visible
02 Nov - 10:26:05 10° SSE 10:32:10 18° SE 10:38:08 10° E daylight
02 Nov - 12:26:17 10° SW 12:35:51 62° SE 12:45:07 10° ENE daylight
02 Nov - 14:31:22 10° W 14:40:58 68° NNW 14:50:19 10° ENE daylight
02 Nov - 16:37:36 10° WNW 16:47:00 62° N 16:56:12 10° E daylight
02 Nov - 18:43:04 10° WNW 18:52:26 79° SSW 19:01:43 10° SE visible
02 Nov - 20:49:04 10° WNW 20:56:22 27° SW 21:03:42 10° S visible
03 Nov - 10:04:53 10° SSE 10:10:36 17° SE 10:16:13 10° E daylight
03 Nov - 12:04:40 10° SW 12:14:13 60° SE 12:23:28 10° ENE daylight
03 Nov - 14:09:38 10° W 14:19:17 70° NNW 14:28:40 10° ENE daylight
03 Nov - 16:15:54 10° WNW 16:25:18 61° N 16:34:31 10° E daylight
03 Nov - 18:21:24 10° WNW 18:30:48 81° SSW 18:40:06 10° SE visible
03 Nov - 20:27:19 10° WNW 20:34:48 28° SW 20:42:19 10° S visible
04 Nov - 09:43:43 10° SSE 09:49:01 16° SE 09:54:15 10° E daylight
04 Nov - 11:43:04 10° SW 11:52:35 57° SE 12:01:49 10° ENE daylight
04 Nov - 13:47:54 10° WSW 13:57:36 71° NNW 14:07:01 10° ENE daylight
04 Nov - 15:54:11 10° WNW 16:03:37 61° N 16:12:50 10° E daylight
04 Nov - 17:59:44 10° WNW 18:09:10 84° SSW 18:18:29 10° SE visible
04 Nov - 20:05:33 10° WNW 20:13:14 30° SW 20:20:55 10° S visible
05 Nov - 09:22:37 10° SSE 09:27:27 15° ESE 09:32:13 10° E daylight
05 Nov - 11:21:30 10° SW 11:30:58 55° SE 11:40:09 10° ENE daylight
05 Nov - 13:26:12 10° WSW 13:35:55 73° NNW 13:45:21 10° ENE daylight
05 Nov - 15:32:28 10° WNW 15:41:55 60° N 15:51:09 10° E daylight
05 Nov - 17:38:04 10° WNW 17:47:32 87° SSW 17:56:51 10° ESE visible
05 Nov - 19:43:48 10° WNW 19:51:40 32° SW 19:59:30 10° S visible
06 Nov - 09:01:36 10° SSE 09:05:53 14° ESE 09:10:07 10° E daylight
06 Nov - 10:59:55 10° SSW 11:09:21 53° SE 11:18:29 10° ENE daylight
06 Nov - 13:04:28 10° WSW 13:14:14 74° NNW 13:23:43 10° ENE daylight
06 Nov - 15:10:46 10° WNW 15:20:13 60° N 15:29:27 10° E daylight
06 Nov - 17:16:23 10° WNW 17:25:53 89° SW 17:35:12 10° ESE visible
06 Nov - 19:22:04 10° WNW 19:30:05 34° SW 19:38:05 10° SSE visible
07 Nov - 08:40:43 10° SE 08:44:19 12° ESE 08:47:53 10° E daylight
07 Nov - 10:38:20 10° SSW 10:47:43 50° SE 10:56:49 10° ENE daylight
07 Nov - 12:42:45 10° WSW 12:52:33 76° NNW 13:02:03 10° ENE daylight
07 Nov - 14:49:02 10° WNW 14:58:31 60° N 15:07:46 10° E daylight
07 Nov - 16:54:43 10° WNW 17:04:14 89° NNE 17:13:34 10° ESE daylight
07 Nov - 19:00:20 10° WNW 19:08:31 36° SW 19:16:39 10° SSE visible
08 Nov - 08:20:03 10° SE 08:22:46 11° ESE 08:25:27 10° ESE daylight
08 Nov - 10:16:47 10° SSW 10:26:06 48° SE 10:35:09 10° ENE daylight
08 Nov - 12:21:02 10° WSW 12:30:53 78° NNW 12:40:24 10° ENE daylight
08 Nov - 14:27:18 10° WNW 14:36:50 60° N 14:46:05 10° E daylight
08 Nov - 16:33:03 10° WNW 16:42:35 86° NNE 16:51:55 10° ESE daylight
08 Nov - 18:38:37 10° WNW 18:46:56 38° SW 18:55:11 10° SSE visible
